Home   Weather   Hartford   Past weeks

Flag for USA Past Weather in Hartford, Connecticut, USA — Yesterday and Last 2 Weeks

Now
24 °F

Clear.


Feels Like: 18 °F
Forecast: 22 / 33 °F
Wind: 5 mph from Northwest

Location: Hartford-Brainard Airport

Current Time: Dec 10, 2016 at 4:13:04 am

Latest Report: Dec 10, 2016 at 2:53 am


Visibility: 10 mi

Pressure: 30.28 "Hg

Humidity: 57%

Dew Point: 11 °F

Location of HartfordLocation

Past Weather in Hartford — Graph

°F

Hartford Temperature Yesterday

Maximum temperature yesterday: 37 °F (at 1:53 pm)
Minimum temperature yesterday: 26 °F (at 11:53 pm)
Average temperature yesterday: 31 °F

High & Low Weather Summary for the Past Weeks

 TemperatureHumidityPressure
High59 °F (Nov 29, 4:53 pm)100% (Nov 25, 8:53 am)30.28 "Hg (Nov 25, 8:53 am)
Low24 °F (Nov 28, 6:57 am)39% (Dec 9, 1:53 pm)29.45 "Hg (Dec 1, 3:53 am)
Average40 °F76%30.00 "Hg
* Reported Nov 25 2:53 am — Dec 10 2:53 am, Hartford, Weather by CustomWeather, © 2016

Note: Actual official high and low records may vary slightly from our data, if they occured in-between our weather recording intervals... More about our weather records

Advertising

Hartford Weather History for the Previous 24 Hours

Scroll right to see more
 ConditionsComfort  
Time TempWeatherWind HumidityBarometerVisibility
2:53 am
Sat, Dec 10
24 °FClear.5 mph57%30.28 "Hg10 mi
1:53 am25 °FClear.7 mph55%30.26 "Hg10 mi
12:53 am25 °FClear.6 mph55%30.24 "Hg10 mi
11:53 pm
Fri, Dec 9
26 °FClear.5 mph52%30.24 "Hg10 mi
10:53 pm27 °FClear.9 mph51%30.24 "Hg10 mi
9:53 pm27 °FPassing clouds.8 mph55%30.22 "Hg10 mi
8:53 pm28 °FPassing clouds.12 mph49%30.22 "Hg10 mi
7:53 pm28 °FClear.6 mph47%30.21 "Hg10 mi
6:53 pm29 °FPassing clouds.15 mph45%30.20 "Hg10 mi
5:53 pm30 °FClear.12 mph47%30.17 "Hg10 mi
4:53 pm31 °FClear.15 mph47%30.14 "Hg10 mi
3:53 pm33 °FSunny.13 mph45%30.10 "Hg10 mi
2:53 pm35 °FPartly sunny.13 mph44%30.07 "Hg10 mi
1:53 pm37 °FOvercast.16 mph39%30.04 "Hg10 mi
12:53 pm35 °FPartly sunny.16 mph44%30.04 "Hg10 mi
11:53 am36 °FOvercast.18 mph40%30.03 "Hg10 mi
10:53 am36 °FPartly sunny.17 mph44%30.05 "Hg10 mi
9:53 am34 °FPartly sunny.20 mph46%30.05 "Hg10 mi
8:53 am34 °FSunny.13 mph50%30.03 "Hg10 mi
7:53 am33 °FSunny.12 mph49%30.01 "Hg10 mi
6:53 am31 °FPassing clouds.8 mph61%29.98 "Hg10 mi
5:53 am31 °FPassing clouds.7 mph61%29.96 "Hg10 mi
4:53 am31 °FClear.7 mph64%29.95 "Hg10 mi
Weather by CustomWeather, © 2016

See weather overviewHow to use our weather pages